Probability
14 15 13 11 9 7 4 3 4 4 4 3 1 0 0 0 0 0 0 0 0 0 0 0 0 0 0 0 0 0 0 0 0 0 0 0 0 0 0 0 0 0 0
16 17 15 12 10 8 5 5 6 6 5 4 2 1 0 0 0 0 0 0 0 0 0 0 0 0 0 0 0 0 0 0 0 0 0 0 0 0 0 0 0 0 0
19 18 16 13 12 9 7 6 7 6 5 4 2 1 0 0 0 0 0 0 0 0 0 0 0 0 0 0 0 0 0 0 0 0 0 0 0 0 0 0 0 0 0
20 17 15 15 13 10 7 6 6 5 4 3 1 0 0 0 0 0 0 0 0 0 0 0 0 0 0 0 0 0 0 0 0 0 0 0 0 0 0 0 0 0 0
17 17 16 15 12 9 7 5 5 4 3 2 0 0 0 0 0 0 0 0 0 0 0 0 0 0 0 0 0 0 0 0 0 0 0 0 0 0 0 0 0 0 0
15 16 17 16 12 9 7 6 5 5 4 2 1 0 0 0 0 0 0 0 0 0 0 0 0 0 0 0 0 0 0 0 0 0 0 0 0 0 0 0 0 0 0
16 17 18 17 15 11 9 7 6 7 6 3 2 0 0 0 0 0 0 0 0 0 0 0 0 0 0 0 0 0 0 0 0 0 0 0 0 0 0 0 0 0 0
19 20 20 17 15 13 11 9 7 6 6 4 2 0 0 0 0 0 0 0 0 0 0 0 0 0 0 0 0 0 0 0 0 0 0 0 0 0 0 0 0 0 0
20 22 21 16 11 10 9 9 6 5 5 4 3 1 0 0 0 0 0 0 0 0 0 0 0 0 0 0 0 0 0 0 0 0 0 0 0 0 0 0 0 0 0
20 20 19 15 10 6 6 6 5 5 5 5 5 3 1 0 0 0 0 0 0 0 0 0 0 0 0 0 0 0 0 0 0 0 0 0 0 0 0 0 0 0 0
19 18 16 13 9 6 5 4 4 5 5 6 6 5 3 2 1 0 0 0 0 0 0 0 0 0 0 0 0 0 0 0 0 0 0 0 0 0 0 0 0 0 0
19 18 16 14 11 9 7 6 6 7 7 7 6 6 5 4 2 1 0 0 0 0 0 0 0 0 0 0 0 0 0 0 0 0 0 0 0 0 0 0 0 0 0
24 22 20 19 16 13 11 10 11 10 9 8 6 5 4 5 3 1 1 2 1 0 0 0 1 1 1 0 0 0 0 0 0 0 0 0 0 0 0 0 0 0 0
31 28 26 26 24 20 17 15 14 12 9 7 6 5 4 5 4 3 3 4 3 1 0 1 1 1 1 0 0 0 0 0 0 0 0 0 0 0 0 0 0 0 0
33 30 28 29 29 25 21 17 14 11 8 6 6 5 5 5 5 5 6 6 3 1 1 1 0 0 0 0 0 0 0 0 0 0 1 0 0 0 0 0 0 0 0
30 27 26 27 27 25 21 16 12 9 7 6 5 5 5 4 4 5 6 5 3 2 3 2 1 1 0 0 0 0 0 0 0 0 0 0 0 1 1 1 0 0 0
28 25 22 23 22 20 18 15 11 8 7 6 6 5 4 3 4 5 5 4 2 3 6 6 4 3 2 1 1 0 0 0 0 0 0 0 0 1 2 1 0 1 2
26 23 21 19 17 15 14 15 13 10 7 7 7 6 4 3 4 5 6 4 2 3 6 7 6 5 4 2 2 1 1 0 0 0 0 0 1 1 2 1 1 3 7
20 19 18 17 15 13 13 13 13 10 6 5 5 5 3 2 3 4 5 4 3 3 4 5 5 4 3 2 2 2 1 1 0 0 0 0 1 2 3 3 3 5 8
13 13 15 16 14 12 11 11 10 7 4 3 2 2 1 1 1 2 3 3 2 2 1 2 3 3 2 1 1 1 1 1 1 1 0 0 1 2 4 5 6 8 9
6 9 13 14 11 8 8 8 6 3 3 3 2 1 0 0 0 0 1 1 1 1 0 0 1 1 1 0 0 0 0 0 1 1 1 1 1 1 3 5 8 10 12
3 6 11 12 9 5 5 4 3 2 3 3 2 1 0 0 0 0 0 0 0 0 0 0 0 0 0 0 0 0 0 0 0 0 1 1 2 1 1 2 5 10 12
2 4 7 9 7 5 4 2 1 2 2 1 1 1 0 0 0 0 0 0 0 0 0 0 0 0 0 0 0 0 0 0 0 0 0 1 1 1 0 1 3 6 9
1 2 4 6 6 5 3 1 0 1 1 0 0 0 0 0 0 0 0 0 0 0 0 0 0 0 0 0 0 0 0 0 0 0 0 0 0 0 0 1 2 4 6
1 2 3 3 3 3 1 0 0 0 0 0 0 0 0 0 0 0 0 0 0 0 0 0 0 0 0 0 0 0 0 0 0 0 0 0 0 0 0 1 2 3 3
1 2 3 2 1 1 0 0 0 0 0 0 0 0 0 0 0 0 0 0 0 0 0 0 0 0 0 0 0 0 0 0 0 0 0 0 0 0 0 0 1 2 2
Wind_Speed
14 17 18 15 15 15 15 15 15 15 15 14 14 13 12 11 11 10 10 10 10 10 11 11 11 11 11 11 11 11 11 11 11 11 12 12 11 11 11 12 11 13 15
17 19 18 15 15 15 15 15 15 15 14 14 13 13 12 11 10 10 10 9 10 10 10 10 11 11 11 11 11 11 11 11 11 11 12 12 11 10 9 9 9 12 14
18 19 18 15 15 15 15 14 14 14 14 13 13 12 11 11 10 10 9 9 9 10 10 10 10 11 11 11 11 10 10 10 10 8 8 10 12 10 10 12 15 14 13
18 18 17 17 15 15 15 14 14 14 14 13 13 12 11 10 10 9 9 9 9 9 10 10 10 11 10 10 10 10 10 9 7 6 5 9 11 11 11 13 13 13 13
17 17 18 18 16 15 15 14 14 14 13 13 12 12 11 10 9 9 9 8 9 9 9 9 10 10 10 9 9 9 8 7 4 4 7 8 10 11 11 12 12 12 12
17 17 19 18 16 15 15 14 14 14 13 12 12 11 10 10 9 9 8 8 8 9 9 9 9 9 9 8 7 7 6 4 7 6 7 7 9 10 10 11 11 12 12
16 16 19 18 16 15 15 14 13 13 12 12 11 10 10 9 9 8 8 8 8 8 8 8 8 8 7 7 6 6 4 2 1 6 5 7 9 9 9 10 10 10 11
15 15 17 17 16 15 15 14 13 13 12 11 11 9 9 8 8 8 8 7 7 7 7 7 7 7 6 5 5 5 3 4 4 5 5 8 10 8 9 9 9 9 10
14 14 14 15 15 14 13 13 13 12 11 11 10 9 8 7 7 7 7 6 6 6 6 6 6 5 5 4 4 4 2 4 2 4 5 7 9 7 8 8 9 9 10
12 12 13 12 12 12 13 13 12 12 11 10 9 9 8 7 7 7 8 7 5 5 5 5 5 4 4 3 3 2 1 6 3 4 3 9 9 7 8 8 8 8 9
12 11 11 12 11 11 11 12 12 11 10 10 9 9 7 7 7 8 6 6 5 4 4 4 4 3 3 5 3 2 5 5 3 2 3 11 8 7 8 8 8 8 9
14 12 10 11 11 11 8 9 8 8 8 7 6 7 5 3 2 2 8 5 4 4 5 4 4 5 7 5 7 7 5 4 1 2 5 9 7 7 8 9 9 9 9
12 11 10 9 9 9 6 7 5 4 5 5 6 5 3 3 3 2 3 4 4 5 4 5 5 3 3 2 2 3 3 3 2 1 6 8 6 7 8 9 10 10 10
11 11 10 9 8 7 6 5 5 4 4 4 5 5 3 2 2 1 1 2 2 2 2 1 1 1 2 3 4 4 3 4 3 1 4 7 6 7 8 10 10 11 11
10 10 9 8 8 7 6 4 5 4 4 5 4 4 3 3 2 1 1 1 1 1 2 1 1 1 2 3 3 3 3 4 4 4 3 7 6 7 8 9 11 12 13
11 10 9 8 8 7 6 4 4 4 3 3 4 4 3 2 2 2 2 1 0 0 0 0 0 1 1 1 2 2 4 4 4 4 4 5 8 7 8 8 10 12 14
10 10 9 9 8 8 6 6 4 4 4 3 4 3 3 2 2 2 2 2 1 1 1 0 0 1 2 2 2 3 3 3 4 4 5 4 5 9 9 9 10 11 13
9 9 9 8 9 7 6 5 4 4 4 4 4 4 4 3 3 2 2 2 1 1 1 1 0 1 1 2 2 2 2 2 4 4 5 5 4 4 8 10 10 10 12
9 8 8 7 9 8 7 6 5 4 4 4 4 4 4 4 3 2 2 2 1 1 0 0 1 1 1 2 3 2 3 3 3 4 5 5 5 5 5 7 10 10 11
9 9 8 7 8 8 6 6 5 5 5 4 4 4 4 4 4 2 3 2 1 1 1 1 1 0 2 2 4 3 3 3 3 3 5 4 4 6 6 6 6 8 11
8 9 9 8 8 7 6 6 6 6 5 5 4 5 4 4 4 2 2 3 1 1 1 1 1 1 1 2 4 3 3 3 2 2 3 3 3 4 4 5 5 4 5
9 8 9 8 8 8 6 5 4 5 4 4 4 5 5 4 4 3 2 2 1 1 1 0 1 2 1 1 4 4 3 3 3 1 1 2 2 3 3 4 3 4 5
10 10 8 8 8 7 7 6 6 5 5 5 5 5 5 4 4 2 2 1 1 1 2 0 1 2 2 1 2 4 4 3 2 2 1 1 1 2 3 3 4 4 5
11 10 9 9 8 7 8 7 8 6 5 5 5 5 5 4 4 3 2 2 1 0 1 1 1 1 3 2 0 1 3 5 5 2 2 2 1 2 3 4 4 3 4
11 10 10 9 8 8 7 7 7 6 5 5 5 6 5 4 3 3 3 2 1 0 1 2 1 2 2 3 3 2 2 2 5 6 5 3 3 2 2 3 3 3 3
11 10 10 10 9 8 7 7 6 6 6 6 6 6 5 4 4 4 3 2 1 1 1 0 1 1 2 3 4 4 4 4 4 4 6 5 5 3 3 3 4 3 3
Wind_Direction
154 143 145 151 148 146 143 141 140 140 139 137 135 131 127 124 119 113 107 102 98 95 94 93 93 94 93 92 92 92 96 101 102 103 103 102 105 109 113 121 127 110 110
149 143 147 151 149 145 142 140 138 138 138 137 135 132 129 125 121 115 109 104 99 95 94 94 94 93 93 93 92 93 96 101 103 108 116 113 107 109 111 104 91 106 117
147 143 151 150 148 145 142 140 138 138 138 137 136 134 131 126 122 116 111 106 101 98 96 95 95 94 94 93 93 94 97 101 107 126 160 126 111 109 107 102 105 116 117
147 148 153 148 149 146 144 142 140 140 138 137 135 134 131 128 123 118 112 107 103 102 102 100 98 96 94 93 93 95 97 102 117 183 149 109 113 109 113 113 117 118 119
149 150 144 152 151 148 146 144 141 140 139 138 136 134 131 128 124 118 113 109 105 104 104 103 100 96 94 93 93 96 100 110 162 205 95 102 105 113 117 120 122 122 121
152 151 144 156 153 150 148 146 143 142 141 140 137 136 134 130 126 121 117 114 111 108 106 105 101 96 94 91 90 95 106 148 215 107 111 115 111 121 123 124 125 125 125
155 150 147 156 155 154 152 149 146 145 144 143 141 139 138 134 132 129 124 118 115 113 113 110 104 98 92 87 85 89 100 231 222 101 114 104 105 123 130 129 129 129 128
155 147 145 155 157 157 155 153 150 148 147 146 145 144 142 138 135 133 128 124 122 119 117 117 111 104 92 81 79 85 97 272 136 114 114 107 108 130 135 135 134 135 133
151 145 149 157 159 159 158 155 153 153 152 150 149 148 146 143 141 139 136 135 132 129 127 125 123 115 99 84 80 87 84 306 275 117 122 109 123 140 142 143 143 143 141
150 148 152 158 159 164 163 159 157 157 157 154 154 153 151 155 159 158 168 145 145 144 144 141 138 131 121 109 98 105 168 247 208 140 127 114 136 154 155 156 156 154 151
155 153 158 157 162 170 167 158 163 161 160 164 165 159 177 188 171 174 148 135 160 160 158 156 154 149 166 162 152 174 231 246 158 121 107 113 152 170 170 169 169 167 164
161 161 164 161 167 171 167 156 171 169 161 180 163 170 189 175 188 178 120 156 176 177 178 169 170 192 229 193 168 201 232 236 241 164 116 130 167 187 185 181 180 180 178
162 164 163 163 169 167 160 159 167 157 157 172 162 170 182 180 188 189 166 168 185 195 194 167 197 222 243 277 254 230 266 272 257 227 126 144 181 201 199 192 190 191 188
164 165 162 163 166 168 162 159 162 162 165 168 156 179 175 191 203 185 206 188 196 196 189 192 225 224 267 261 260 268 255 266 266 265 128 152 192 210 211 204 200 199 197
164 162 159 161 160 159 156 170 158 162 161 151 155 169 183 192 194 176 185 213 225 196 192 199 226 228 254 253 262 257 265 260 271 259 162 162 198 215 218 215 210 207 203
164 160 157 160 156 156 161 160 148 156 154 154 152 154 175 183 170 172 178 189 211 207 24 263 183 228 259 274 268 267 270 268 255 257 253 184 195 214 221 223 218 215 210
162 157 158 159 160 165 165 163 154 156 156 147 131 135 156 159 145 173 160 164 111 105 152 199 324 262 247 252 263 267 263 278 282 267 266 258 215 201 210 222 224 220 217
156 159 163 164 160 165 161 158 147 149 144 134 132 134 137 130 141 163 141 112 111 168 152 145 218 281 305 291 284 282 273 258 266 269 262 251 259 243 203 209 222 223 222
157 160 161 160 158 160 157 152 145 141 141 140 138 131 128 131 135 142 109 95 169 145 142 252 97 293 283 302 280 259 277 268 267 263 271 264 255 262 252 199 208 220 226
156 157 158 158 156 156 152 145 146 143 145 140 132 121 133 134 131 130 133 129 176 142 128 77 100 348 306 306 292 288 268 273 264 262 264 257 252 252 248 248 218 211 215
155 157 158 156 155 157 155 158 158 155 153 146 138 129 139 136 132 138 126 132 199 127 113 169 239 192 299 323 282 265 239 235 262 261 263 271 254 259 260 252 248 244 215
160 160 157 160 162 165 155 151 156 145 152 137 128 127 140 138 147 150 119 160 142 129 142 135 287 304 349 342 311 295 267 202 195 207 246 239 286 276 264 251 252 242 254
165 166 162 160 160 161 154 152 146 146 157 150 148 147 144 147 147 115 135 105 126 200 129 158 264 297 317 322 340 316 306 322 330 181 171 280 311 305 289 292 259 253 248
165 161 157 156 156 155 165 165 168 170 164 153 160 141 144 148 148 146 142 127 159 98 112 217 70 307 295 293 185 302 324 340 306 294 221 193 237 279 306 304 301 275 262
163 161 159 159 159 158 164 162 174 170 156 151 153 139 155 143 154 154 149 141 157 184 66 21 51 310 297 307 312 302 292 261 265 287 296 301 279 275 304 300 304 304 305
165 164 161 161 161 162 167 167 178 161 156 156 164 158 173 160 159 148 151 147 177 100 115 148 292 235 320 333 312 306 297 297 298 295 291 285 293 299 306 306 288 295 302